Regional Weather Roundup
Issued by NWS State College, PA

Home | Current Version | Previous Version | Text Only | Print | Product List | Glossary Off
Versions: 1 2 3 4 5 6 7 8 9 10 11 12 13 14 15 16 17 18 19 20 21 22 23 24 25 26 27 28 29 30 31 32 33 34 35 36 37 38 39 40 41 42 43 44 45 46 47 48 49 50

721
ASUS41 KCTP 290903
RWRCTP

REGIONAL WEATHER ROUNDUP
NATIONAL WEATHER SERVICE STATE COLLEGE PA
500 AM EDT MON MAY 29 2017

Note: "fair" indicates few or no clouds below 12,000 feet with no
significant weather and/or obstructions to visibility.

* = STATION THAT DOES NOT REPORT PRECIPITATION /E.G. RAIN...SNOW...ETC/
    THUNDER OR FOG.

PAZ002>004-007>009-013>016-020>023-029>032-291000-
WESTERN PENNSYLVANIA

CITY           SKY/WX    TMP DP  RH WIND       PRES   REMARKS
ERIE           CLOUDY    62  59  90 S13       29.71S
MEADVILLE      CLOUDY    59  59 100 S7        29.76S
FRANKLIN*      CLOUDY    57  55  94 S5        29.78S
NEW CASTLE     PTSUNNY   61  60  97 CALM      29.80R
BEAVER COUNTY  NOT AVBL
BUTLER*        CLOUDY    61  57  88 S3        29.78F
PITTSBURGH INT CLOUDY    63  63 100 SW9       29.80S
PITTSBURGH     CLOUDY    62  60  93 S12       29.79R
INDIANA*         N/A     61  61 100 CALM      29.82R
LATROBE        LGT RAIN  61  61 100 SE5       29.81S
WASHINGTON CO* CLOUDY    59  57  94 SW3       29.83R
$$

PAZ004>006-010>012-017>019-024>028-033>037-041-042-045-046-049>053-291000-
CENTRAL PENNSYLVANIA

CITY           SKY/WX    TMP DP  RH WIND       PRES   REMARKS
BRADFORD       LGT RAIN  58  58 100 VRB3      29.79R
DUBOIS         LGT RAIN  59  57  93 CALM      29.78S
CLEARFIELD     HVY RAIN  60  60 100 SW6       29.81R FOG
JOHNSTOWN      RAIN      59  58  96 NW9       29.83R FOG
ALTOONA        CLOUDY    63  62  97 CALM      29.79S
STATE COLLEGE  LGT RAIN  60  59  97 CALM      29.78F
WILLIAMSPORT   HVY RAIN  59  58  96 E14       29.79S FOG
SELINSGROVE    CLOUDY    60  57  89 SE3       29.81S
FT INDIANTOWN  CLOUDY    57  57 100 NE6       29.83R
CAPITAL CITY   LGT RAIN  61  58  90 E6        29.81S
HARRISBURG     DRIZZLE   60  60 100 E6        29.81R
YORK           CLOUDY    60  60 100 CALM      29.81S
$$

PAZ038>040-043-044-047-048-054-055-060>062-067>071-291000-
EASTERN PENNSYLVANIA

CITY           SKY/WX    TMP DP  RH WIND       PRES   REMARKS
SCRANTON       LGT RAIN  55  53  93 VRB5      29.82F
MOUNT POCONO   LGT RAIN  50  50 100 E9        29.85F
ALLENTOWN      CLOUDY    58  53  84 E12       29.84S
QUAKERTOWN*    CLOUDY    55  55 100 E3        29.85R
READING        HVY RAIN  58  58 100 CALM      29.82R
LANCASTER      LGT RAIN  59  59 100 E5        29.82F FOG
COATESVILLE    FOG       57  57 100 CALM      29.84R VSB 3/4
POTTSTOWN      CLOUDY    56  55  97 E7        29.84S
BLUE BELL      CLOUDY    55  55 100 E7        29.83F
DOYLESTOWN     LGT RAIN  56  56 100 VRB3      29.83F
WILLOW GROVE   NOT AVBL
NORTH PHILA    LGT RAIN  59  57  93 E9        29.84S
PHILADELPHIA   LGT RAIN  59  57  93 NE9       29.82F
$$




USA.gov is the U.S. government's official web portal to all federal, state and local government web resources and services.